Погода в Междугорном

Россия / Кемеровская область (Кузбасс)     54°55′55″N   86°49′59″E
темп.,
°C
ветер,
м/с
пор.,
м/с
влажн.,
%
обл.,
%
осадки,
мм/ч
давл.,
гПа
погр.,
м
17 мая, вт
вт1701:00+14ююв225998 0.0 101216
04:00+14ююв2267100 0.0 101133
07:00+15юв247014 0.0 1012132
10:00+19ю4759100 0.1 1011562
13:00+26ююз373361 0.1 10092843
16:00+26юз573365 0.0 10082728
19:00+24ююз410395 0.0 1007517
22:00+18ююв3125443 0.0 1008210
18 мая, ср
ср1801:00+20ююз5164285 0.0 1007578
04:00+18ю3847100 0.1 1008206
07:00+15юв2774100 0.5 1009179
10:00+22зюз2447100 0.0 1010653
13:00+25з3635100 0.0 10101738
16:00+26зсз5733100 0.0 10102299
19:00+23сз2546100 0.0 1011234
22:00+17св1162100 0.0 101211
19 мая, чт
чт1901:00+16в226398 0.0 101122
04:00+15в2266100 0.0 100928
07:00+16в1368100 0.1 100895
10:00+24юв3745100 0.0 1006456
13:00+28ю6933100 0.0 10041616
16:00+27юз71038100 0.0 10031636
19:00+24з81152100 0.1 10051502
22:00+15ююв35715 0.6 100881
20 мая, пт
пт2001:00+17з71341100 0.6 10101225
04:00+12ююз513625 0.0 1012804
07:00+13ююз5125746 0.0 1014922
10:00+17зюз6113978 0.0 10152117
13:00+20зюз6102996 0.0 10153209
16:00+22зюз69275 0.0 10143029
19:00+20зюз473785 0.0 1014998
22:00+14ююз2355100 0.0 101460
21 мая, сб
сб2101:00+12ююз2258100 0.0 101429
04:00+10ююв2267100 0.0 101519
07:00+12юв256296 0.0 1014138
10:00+20ююв46405 0.0 1012636
13:00+24юв34300 0.0 10101203
16:00+27вюв34290 0.0 10071209
19:00+25всв23420 0.0 1004125
22:00+18всв225681 0.0 100312